,,Stat6,,Stat2,,Stat8,,Stat9,,Stat10,,Wind1,,Wind1,
time,status,PA1M_AVG,status,PR1M_SUM,status,RH1M_AVG,status,SR1M_AVG,status,TA1M_AVG,status,W1dAve1m,status,W1sAve1m,
2006-11-15, 07:00:01,VALID,917.61,VALID,0,VALID,91.6522,VALID,-0.101885,VALID,20.8578,VALID,79,VALID,1.34393,
2006-11-15, 07:01:00,VALID,917.609,VALID,0,VALID,91.731,VALID,-0.101885,VALID,20.8511,VALID,74,VALID,1.32304,
2006-11-15, 07:02:00,VALID,917.603,VALID,0,VALID,92.0426,VALID,-0.101885,VALID,20.839,VALID,70,VALID,1.39825,
2006-11-15, 07:03:00,VALID,917.617,VALID,0,VALID,92.2778,VALID,-0.0849042,VALID,20.8387,VALID,54,VALID,1.69473,
2006-11-15, 07:04:00,VALID,917.624,VALID,0,VALID,92.0883,VALID,-0.101885,VALID,20.8874,VALID,71,VALID,1.18914,
2006-11-15, 07:05:00,VALID,917.625,VALID,0,VALID,91.9357,VALID,0,VALID,20.902,VALID,71,VALID,1.23403,
2006-11-15, 07:06:00,VALID,917.628,VALID,0,VALID,91.9421,VALID,0.0339617,VALID,20.898,VALID,91,VALID,0.790153,
2006-11-15, 07:07:00,VALID,917.642,VALID,0,VALID,92.0171,VALID,0.0679233,VALID,20.888,VALID,52,VALID,0.388951,
2006-11-15, 07:08:00,VALID,917.621,VALID,0,VALID,92.1634,VALID,0.0849042,VALID,20.842,VALID,54,VALID,0.236523,
2006-11-15, 07:09:00,VALID,917.599,VALID,0,VALID,92.3477,VALID,0.0339617,VALID,20.849,VALID,71,VALID,0.565225,
2006-11-15, 07:10:00,VALID,917.599,VALID,0,VALID,92.3477,VALID,0.0339617,VALID,20.8748,VALID,97,VALID,0.581143,
2006-11-15, 07:11:00,VALID,917.601,VALID,0,VALID,92.3147,VALID,0.0509425,VALID,20.8751,VALID,76,VALID,0.354759,
2006-11-15, 07:12:00,VALID,917.603,VALID,0,VALID,92.349,VALID,0.0509425,VALID,20.8719,VALID,71,VALID,0.193266,
2006-11-15, 07:13:00,VALID,917.613,VALID,0,VALID,92.3032,VALID,0.0509425,VALID,20.8689,VALID,55,VALID,0.549782,
2006-11-15, 07:14:00,VALID,917.608,VALID,0,VALID,92.4584,VALID,0.0849042,VALID,20.8719,VALID,56,VALID,1.13246,
2006-11-15, 07:15:00,VALID,917.59,VALID,0,VALID,92.3388,VALID,0.0509425,VALID,20.9007,VALID,49,VALID,0.351749,
2006-11-15, 07:16:00,VALID,917.573,VALID,0,VALID,92.1265,VALID,0.0849042,VALID,20.9362,VALID,89,VALID,0.852706,
2006-11-15, 07:17:00,VALID,917.559,VALID,0,VALID,91.9052,VALID,0.0509425,VALID,20.9975,VALID,75,VALID,0.811047,
2006-11-15, 07:18:00,VALID,917.544,VALID,0,VALID,91.7132,VALID,0.0339617,VALID,21.0368,VALID,59,VALID,1.2023,
2006-11-15, 07:19:00,VALID,917.54,VALID,0,VALID,91.4373,VALID,0.0339617,VALID,21.085,VALID,66,VALID,1.47874,
2006-11-15, 07:20:00,VALID,917.548,VALID,0,VALID,91.1321,VALID,0.0679233,VALID,21.1369,VALID,71,VALID,1.60472,
2006-11-15, 07:21:00,VALID,917.581,VALID,0,VALID,90.9515,VALID,0.0679233,VALID,21.1622,VALID,58,VALID,1.13702,
2006-11-15, 07:22:00,VALID,917.596,VALID,0,VALID,90.8587,VALID,0.101885,VALID,21.1819,VALID,46,VALID,1.64299,
2006-11-15, 07:23:00,VALID,917.592,VALID,0,VALID,90.701,VALID,0.0849042,VALID,21.1942,VALID,42,VALID,1.18293,
2006-11-15, 07:24:00,VALID,917.6,VALID,0,VALID,90.6972,VALID,0.0339617,VALID,21.2047,VALID,51,VALID,0.90483,
2006-11-15, 07:25:00,VALID,917.615,VALID,0,VALID,90.6807,VALID,0.0849042,VALID,21.1975,VALID,37,VALID,1.2779,
2006-11-15, 07:26:00,VALID,917.594,VALID,0,VALID,90.5421,VALID,0.0509425,VALID,21.2333,VALID,38,VALID,0.913336,
2006-11-15, 07:27:00,VALID,917.588,VALID,0,VALID,90.2877,VALID,0.0679233,VALID,21.272,VALID,79,VALID,0.765234,
2006-11-15, 07:28:00,VALID,917.567,VALID,0,VALID,90.0245,VALID,0.101885,VALID,21.3137,VALID,57,VALID,1.14167,
2006-11-15, 07:29:00,VALID,917.563,VALID,0,VALID,89.9088,VALID,0.0339617,VALID,21.3237,VALID,49,VALID,1.57124,
2006-11-15, 07:30:00,VALID,917.534,VALID,0,VALID,89.7778,VALID,0.0849042,VALID,21.346,VALID,50,VALID,1.39004,
2006-11-15, 07:31:00,VALID,917.541,VALID,0,VALID,89.3976,VALID,0.0339617,VALID,21.4133,VALID,68,VALID,1.13467,
2006-11-15, 07:32:00,VALID,917.562,VALID,0,VALID,88.8585,VALID,0.0679233,VALID,21.4911,VALID,64,VALID,1.19744,
2006-11-15, 07:33:00,VALID,917.572,VALID,0,VALID,88.7033,VALID,0.0849042,VALID,21.5336,VALID,360,VALID,1.10614,
2006-11-15, 07:34:00,VALID,917.56,VALID,0,VALID,88.6003,VALID,0.0339617,VALID,21.5465,VALID,35,VALID,0.887847,
2006-11-15, 07:35:00,VALID,917.525,VALID,0,VALID,88.4248,VALID,-0.0169808,VALID,21.5479,VALID,64,VALID,1.05506,
2006-11-15, 07:36:00,VALID,917.504,VALID,0,VALID,88.299,VALID,-0.0339617,VALID,21.574,VALID,76,VALID,1.24219,
2006-11-15, 07:37:00,VALID,917.504,VALID,0,VALID,88.1451,VALID,-0.0169808,VALID,21.5995,VALID,58,VALID,1.88783,
2006-11-15, 07:38:00,VALID,917.513,VALID,0,VALID,87.6263,VALID,-0.0509425,VALID,21.6806,VALID,72,VALID,1.37028,
2006-11-15, 07:39:00,VALID,917.506,VALID,0,VALID,87.5245,VALID,-0.0169808,VALID,21.7387,VALID,50,VALID,1.3125,
2006-11-15, 07:40:00,VALID,917.53,VALID,0,VALID,87.4368,VALID,-0.0339617,VALID,21.7476,VALID,58,VALID,1.10938,
2006-11-15, 07:41:00,VALID,917.526,VALID,0,VALID,87.2181,VALID,-0.0509425,VALID,21.7605,VALID,53,VALID,0.826705,
2006-11-15, 07:42:00,VALID,917.516,VALID,0,VALID,87.26,VALID,-0.0169808,VALID,21.7901,VALID,61,VALID,0.625,
2006-11-15, 07:43:00,VALID,917.527,VALID,0,VALID,87.2893,VALID,-0.0169808,VALID,21.7968,VALID,60,VALID,0.413462,
2006-11-15, 07:44:00,VALID,917.546,VALID,0,VALID,87.3796,VALID,-0.0679233,VALID,21.7836,VALID,46,VALID,0.290799,
2006-11-15, 07:45:00,VALID,917.553,VALID,0,VALID,87.4457,VALID,-0.0169808,VALID,21.7634,VALID,46,VALID,0.181176,
2006-11-15, 07:46:00,VALID,917.573,VALID,0,VALID,87.4915,VALID,-0.0169808,VALID,21.7451,VALID,45,VALID,0.464571,
2006-11-15, 07:47:00,VALID,917.587,VALID,0,VALID,87.7611,VALID,-0.0169808,VALID,21.7185,VALID,43,VALID,0.22202,
2006-11-15, 07:48:00,VALID,917.593,VALID,0,VALID,87.8259,VALID,-0.0339617,VALID,21.6894,VALID,34,VALID,0.681641,
2006-11-15, 07:49:00,VALID,917.598,VALID,0,VALID,87.9009,VALID,0,VALID,21.6706,VALID,41,VALID,0.458984,
2006-11-15, 07:50:00,VALID,917.597,VALID,0,VALID,88.0154,VALID,-0.0339617,VALID,21.6539,VALID,42,VALID,0.693452,
2006-11-15, 07:51:00,VALID,917.592,VALID,0,VALID,88.2913,VALID,-0.0339617,VALID,21.6477,VALID,8,VALID,0.251065,
2006-11-15, 07:52:00,VALID,917.605,VALID,0,VALID,88.6881,VALID,-0.0509425,VALID,21.5699,VALID,333,VALID,0.302507,
2006-11-15, 07:53:00,VALID,917.618,VALID,0,VALID,89.1992,VALID,-0.0169808,VALID,21.4792,VALID,294,VALID,0.467115,
2006-11-15, 07:54:00,VALID,917.643,VALID,0,VALID,89.9533,VALID,-0.0169808,VALID,21.3724,VALID,283,VALID,1.35451,
2006-11-15, 07:55:00,VALID,917.638,VALID,0,VALID,90.949,VALID,-0.0339617,VALID,21.2115,VALID,274,VALID,1.11133,
2006-11-15, 07:56:00,VALID,917.65,VALID,0,VALID,91.8455,VALID,-0.0509425,VALID,21.0694,VALID,271,VALID,1.22266,
2006-11-15, 07:57:00,VALID,917.65,VALID,0,VALID,92.6478,VALID,-0.0169808,VALID,20.8985,VALID,273,VALID,0.865885,
2006-11-15, 07:58:00,VALID,917.663,VALID,0,VALID,93.5774,VALID,-0.0339617,VALID,20.7303,VALID,265,VALID,0.789608,
2006-11-15, 07:59:00,VALID,917.662,VALID,0,VALID,94.362,VALID,0,VALID,20.6007,VALID,296,VALID,1.13243,
2006-11-15, 08:00:00,VALID,917.624,VALID,0,VALID,94.9914,VALID,-0.0169808,VALID,20.4618,VALID,248,VALID,0.899554,
2006-11-15, 08:01:00,VALID,917.617,VALID,0,VALID,95.6844,VALID,0,VALID,20.3784,VALID,279,VALID,0.531424,
2006-11-15, 08:02:00,VALID,917.626,VALID,0,VALID,96.0761,VALID,0,VALID,20.3618,VALID,266,VALID,0.813281,
2006-11-15, 08:03:00,VALID,917.608,VALID,0,VALID,96.0278,VALID,-0.0169808,VALID,20.3844,VALID,252,VALID,0.35,
2006-11-15, 08:04:00,VALID,917.598,VALID,0,VALID,95.804,VALID,-0.0169808,VALID,20.3946,VALID,294,VALID,1.10032,
2006-11-15, 08:05:00,VALID,917.614,VALID,0,VALID,95.4505,VALID,-0.0169808,VALID,20.4335,VALID,304,VALID,0.900981,
2006-11-15, 08:06:00,VALID,917.596,VALID,0,VALID,94.7562,VALID,0,VALID,20.511,VALID,285,VALID,2.60458,
2006-11-15, 08:07:00,VALID,917.603,VALID,0,VALID,94.3035,VALID,0,VALID,20.6248,VALID,279,VALID,1.88958,
2006-11-15, 08:08:00,VALID,917.602,VALID,0,VALID,94.2615,VALID,0,VALID,20.637,VALID,271,VALID,1.16751,
2006-11-15, 08:09:00,VALID,917.587,VALID,0,VALID,94.3505,VALID,-0.0849042,VALID,20.6211,VALID,291,VALID,0.968928,
2006-11-15, 08:10:00,VALID,917.556,VALID,0,VALID,94.5095,VALID,-0.0339617,VALID,20.5761,VALID,229,VALID,0.441592,
2006-11-15, 08:11:00,VALID,917.588,VALID,0,VALID,94.7244,VALID,-0.0339617,VALID,20.5369,VALID,247,VALID,0.402798,
2006-11-15, 08:12:00,VALID,917.609,VALID,0,VALID,94.8197,VALID,-0.0169808,VALID,20.5404,VALID,286,VALID,1.35488,
2006-11-15, 08:13:00,VALID,917.613,VALID,0,VALID,94.9278,VALID,-0.0169808,VALID,20.5081,VALID,279,VALID,0.842634,
2006-11-15, 08:14:00,VALID,917.612,VALID,0,VALID,95.1135,VALID,0,VALID,20.4693,VALID,271,VALID,0.823847,
2006-11-15, 08:15:00,VALID,917.632,VALID,0,VALID,95.2775,VALID,0,VALID,20.4311,VALID,242,VALID,0.233073,
2006-11-15, 08:16:00,VALID,917.665,VALID,0,VALID,95.3754,VALID,-0.0339617,VALID,20.4174,VALID,278,VALID,0.293713,
2006-11-15, 08:17:00,VALID,917.66,VALID,0,VALID,95.3525,VALID,-0.0169808,VALID,20.4117,VALID,291,VALID,0.213672,
2006-11-15, 08:18:00,VALID,917.673,VALID,0,VALID,95.2877,VALID,-0.0339617,VALID,20.4144,VALID,291,VALID,0.297247,
2006-11-15, 08:19:00,VALID,917.685,VALID,0,VALID,95.2801,VALID,-0.0849042,VALID,20.4443,VALID,303,VALID,0.370384,
2006-11-15, 08:20:00,VALID,917.683,VALID,0,VALID,95.1656,VALID,-0.0169808,VALID,20.4437,VALID,318,VALID,0.299162,
2006-11-15, 08:21:00,VALID,917.672,VALID,0,VALID,95.2228,VALID,-0.0339617,VALID,20.4502,VALID,318,VALID,0.0520198,
2006-11-15, 08:22:00,VALID,917.672,VALID,0,VALID,95.1847,VALID,0,VALID,20.4698,VALID,318,VALID,0,
2006-11-15, 08:23:00,VALID,917.673,VALID,0,VALID,95.1529,VALID,-0.0509425,VALID,20.4661,VALID,318,VALID,0,
2006-11-15, 08:24:00,VALID,917.651,VALID,0,VALID,95.3742,VALID,-0.0169808,VALID,20.4634,VALID,206,VALID,0.310785,
2006-11-15, 08:25:00,VALID,917.628,VALID,0,VALID,95.5547,VALID,-0.0509425,VALID,20.4117,VALID,176,VALID,0.37035,
2006-11-15, 08:26:00,VALID,917.617,VALID,0,VALID,96.043,VALID,-0.0509425,VALID,20.373,VALID,213,VALID,0.755145,
2006-11-15, 08:27:00,VALID,917.607,VALID,0,VALID,95.879,VALID,-0.0509425,VALID,20.3635,VALID,216,VALID,0.451672,
2006-11-15, 08:28:00,VALID,917.587,VALID,0,VALID,95.6488,VALID,-0.0169808,VALID,20.3827,VALID,291,VALID,0.267531,
2006-11-15, 08:29:00,VALID,917.593,VALID,0,VALID,95.4721,VALID,-0.0339617,VALID,20.4308,VALID,200,VALID,0.407118,
2006-11-15, 08:30:00,VALID,917.586,VALID,0,VALID,95.4708,VALID,-0.0339617,VALID,20.4211,VALID,157,VALID,0.678925,
2006-11-15, 08:31:00,VALID,917.579,VALID,0,VALID,95.8141,VALID,0,VALID,20.3509,VALID,153,VALID,0.956101,
2006-11-15, 08:32:00,VALID,917.567,VALID,0,VALID,96.3469,VALID,0,VALID,20.2279,VALID,125,VALID,1.35252,
2006-11-15, 08:33:00,VALID,917.549,VALID,0,VALID,97.0336,VALID,-0.0169808,VALID,20.105,VALID,140,VALID,1.26758,
2006-11-15, 08:34:00,VALID,917.543,VALID,0,VALID,97.6821,VALID,-0.0339617,VALID,19.9918,VALID,144,VALID,0.860863,
2006-11-15, 08:35:00,VALID,917.532,VALID,0,VALID,98.1641,VALID,0,VALID,19.9143,VALID,140,VALID,0.821057,
2006-11-15, 08:36:00,VALID,917.546,VALID,0,VALID,98.5811,VALID,-0.0339617,VALID,19.85,VALID,143,VALID,1.00675,
2006-11-15, 08:37:00,VALID,917.542,VALID,0,VALID,98.9982,VALID,-0.0509425,VALID,19.772,VALID,149,VALID,0.950195,
2006-11-15, 08:38:00,VALID,917.54,VALID,0,VALID,99.3517,VALID,-0.0849042,VALID,19.7017,VALID,144,VALID,1.26621,
2006-11-15, 08:39:00,VALID,917.537,VALID,0,VALID,99.7332,VALID,-0.0509425,VALID,19.6302,VALID,135,VALID,1.65359,
2006-11-15, 08:40:00,VALID,917.557,VALID,0,VALID,99.9926,VALID,-0.0339617,VALID,19.5657,VALID,139,VALID,1.56046,
2006-11-15, 08:41:00,VALID,917.556,VALID,0,VALID,100,VALID,-0.0339617,VALID,19.5269,VALID,142,VALID,1.09414,
2006-11-15, 08:42:00,VALID,917.547,VALID,0,VALID,100,VALID,-0.0339617,VALID,19.5019,VALID,179,VALID,1.17248,
2006-11-15, 08:43:00,VALID,917.561,VALID,0,VALID,100,VALID,-0.0509425,VALID,19.4696,VALID,202,VALID,0.832031,
2006-11-15, 08:44:00,VALID,917.56,VALID,0,VALID,100,VALID,-0.0509425,VALID,19.4433,VALID,210,VALID,0.398264,
2006-11-15, 08:45:00,VALID,917.579,VALID,0,VALID,100,VALID,-0.0339617,VALID,19.4438,VALID,283,VALID,0.683036,
2006-11-15, 08:46:00,VALID,917.569,VALID,0,VALID,100,VALID,-0.0509425,VALID,19.4663,VALID,298,VALID,0.530887,
2006-11-15, 08:47:00,VALID,917.56,VALID,0,VALID,100,VALID,-0.0509425,VALID,19.4922,VALID,283,VALID,0.425521,
2006-11-15, 08:48:00,VALID,917.562,VALID,0,VALID,100,VALID,-0.0509425,VALID,19.4954,VALID,273,VALID,0.596294,
2006-11-15, 08:49:00,VALID,917.585,VALID,0,VALID,100,VALID,-0.0169808,VALID,19.5148,VALID,271,VALID,0.5,
2006-11-15, 08:50:00,VALID,917.591,VALID,0,VALID,100,VALID,-0.0339617,VALID,19.5148,VALID,271,VALID,0.213481,
2006-11-15, 08:51:01,VALID,917.59,VALID,0,VALID,100,VALID,-0.0679233,VALID,19.5019,VALID,271,VALID,0.205669,
2006-11-15, 08:52:00,VALID,917.596,VALID,0,VALID,100,VALID,-0.0849042,VALID,19.4984,VALID,271,VALID,0.0118096,
2006-11-15, 08:53:00,VALID,917.596,VALID,0,VALID,100,VALID,-0.0169808,VALID,19.4892,VALID,271,VALID,0.0579579,
2006-11-15, 08:54:00,VALID,917.596,VALID,0,VALID,100,VALID,-0.0679233,VALID,19.4922,VALID,271,VALID,0.0539435,
2006-11-15, 08:55:00,VALID,917.607,VALID,0,VALID,100,VALID,-0.0169808,VALID,19.5118,VALID,261,VALID,0.296148,
2006-11-15, 08:56:00,VALID,917.617,VALID,0,VALID,100,VALID,-0.0339617,VALID,19.5212,VALID,254,VALID,0.205729,
2006-11-15, 08:57:01,VALID,917.623,VALID,0,VALID,100,VALID,-0.0339617,VALID,19.5086,VALID,254,VALID,0.146205,
2006-11-15, 08:58:00,VALID,917.64,VALID,0,VALID,100,VALID,-0.0509425,VALID,19.5021,VALID,213,VALID,0.494336,
2006-11-15, 08:59:00,VALID,917.659,VALID,0,VALID,100,VALID,-0.0679233,VALID,19.4956,VALID,198,VALID,0.219512,
2006-11-15, 09:00:00,VALID,917.678,VALID,0,VALID,100,VALID,-0.0679233,VALID,19.4892,VALID,198,VALID,0.113009,
2006-11-15, 09:01:01,VALID,917.714,VALID,0,VALID,100,VALID,-0.0509425,VALID,19.5026,VALID,220,VALID,0.318788,
2006-11-15, 09:02:01,VALID,917.728,VALID,0,VALID,100,VALID,-0.0169808,VALID,19.5215,VALID,266,VALID,0.828311,
2006-11-15, 09:03:00,VALID,917.731,VALID,0,VALID,100,VALID,-0.0679233,VALID,19.5247,VALID,268,VALID,0.412388,
2006-11-15, 09:04:00,VALID,917.739,VALID,0,VALID,100,VALID,-0.0509425,VALID,19.5314,VALID,265,VALID,0.559775,
2006-11-15, 09:05:00,VALID,917.745,VALID,0,VALID,100,VALID,0,VALID,19.5182,VALID,246,VALID,0.65968,
2006-11-15, 09:06:00,VALID,917.743,VALID,0,VALID,100,VALID,-0.0169808,VALID,19.4924,VALID,234,VALID,0.942708,
2006-11-15, 09:07:00,VALID,917.743,VALID,0,VALID,100,VALID,-0.0169808,VALID,19.4567,VALID,231,VALID,0.601749,
2006-11-15, 09:08:01,VALID,917.739,VALID,0,VALID,100,VALID,-0.0169808,VALID,19.447,VALID,231,VALID,0.354911,
2006-11-15, 09:09:01,VALID,917.714,VALID,0,VALID,100,VALID,-0.0169808,VALID,19.4438,VALID,264,VALID,0.661337,
2006-11-15, 09:10:01,VALID,917.718,VALID,0,VALID,100,VALID,-0.0169808,VALID,19.4629,VALID,270,VALID,0.944949,
2006-11-15, 09:11:01,VALID,917.712,VALID,0,VALID,100,VALID,0,VALID,19.4797,VALID,272,VALID,0.866071,
2006-11-15, 09:12:01,VALID,917.706,VALID,0,VALID,100,VALID,0,VALID,19.4532,VALID,270,VALID,0.530678,
2006-11-15, 09:13:00,VALID,917.704,VALID,0,VALID,100,VALID,-0.0169808,VALID,19.4371,VALID,270,VALID,0.0173399,
2006-11-15, 09:14:01,VALID,917.698,VALID,0,VALID,100,VALID,0,VALID,19.4306,VALID,270,VALID,0.118304,
2006-11-15, 09:15:00,VALID,917.695,VALID,0,VALID,100,VALID,0,VALID,19.4053,VALID,270,VALID,0.170213,
2006-11-15, 09:16:00,VALID,917.694,VALID,0,VALID,100,VALID,-0.0169808,VALID,19.3983,VALID,309,VALID,0.341206,
2006-11-15, 09:17:00,VALID,917.695,VALID,0,VALID,100,VALID,0,VALID,19.4018,VALID,49,VALID,0.352539,
2006-11-15, 09:18:00,VALID,917.704,VALID,0,VALID,100,VALID,0,VALID,19.3986,VALID,70,VALID,0.51391,
2006-11-15, 09:19:00,VALID,917.711,VALID,0,VALID,100,VALID,0,VALID,19.3889,VALID,62,VALID,0.749023,
2006-11-15, 09:20:00,VALID,917.708,VALID,0,VALID,100,VALID,0,VALID,19.3919,VALID,67,VALID,0.775112,
2006-11-15, 09:21:00,VALID,917.697,VALID,0,VALID,100,VALID,-0.0339617,VALID,19.3593,VALID,60,VALID,0.816311,
2006-11-15, 09:22:00,VALID,917.69,VALID,0,VALID,100,VALID,0,VALID,19.3628,VALID,72,VALID,0.71596,
2006-11-15, 09:23:01,VALID,917.673,VALID,0,VALID,100,VALID,0.0169808,VALID,19.3564,VALID,69,VALID,0.603924,
2006-11-15, 09:24:00,VALID,917.658,VALID,0,VALID,100,VALID,0.0169808,VALID,19.3631,VALID,42,VALID,0.578497,
2006-11-15, 09:25:00,VALID,917.638,VALID,0,VALID,100,VALID,0,VALID,19.366,VALID,29,VALID,0.329013,
2006-11-15, 09:26:01,VALID,917.616,VALID,0,VALID,100,VALID,0,VALID,19.3695,VALID,26,VALID,0.549361,
2006-11-15, 09:27:00,VALID,917.6,VALID,0,VALID,100,VALID,0,VALID,19.3665,VALID,20,VALID,0.393288,
2006-11-15, 09:28:00,VALID,917.583,VALID,0,VALID,100,VALID,0,VALID,19.3762,VALID,13,VALID,0.809295,
2006-11-15, 09:29:00,VALID,917.558,VALID,0,VALID,100,VALID,0,VALID,19.3695,VALID,11,VALID,0.863636,
2006-11-15, 09:30:01,VALID,917.561,VALID,0,VALID,100,VALID,0,VALID,19.3663,VALID,11,VALID,0.407292,
2006-11-15, 09:31:01,VALID,917.539,VALID,0,VALID,100,VALID,-0.0169808,VALID,19.3824,VALID,12,VALID,0.291481,
2006-11-15, 09:32:00,VALID,917.527,VALID,0,VALID,100,VALID,0,VALID,19.3891,VALID,12,VALID,0.437872,
2006-11-15, 09:33:01,VALID,917.507,VALID,0,VALID,100,VALID,0.0169808,VALID,19.3787,VALID,12,VALID,0.573289,
2006-11-15, 09:34:00,VALID,917.491,VALID,0,VALID,100,VALID,0,VALID,19.3852,VALID,12,VALID,0.149182,
2006-11-15, 09:35:00,VALID,917.471,VALID,0,VALID,100,VALID,0,VALID,19.4157,VALID,12,VALID,0.253495,
2006-11-15, 09:36:00,VALID,917.452,VALID,0,VALID,100,VALID,0,VALID,19.4053,VALID,12,VALID,0.380469,
2006-11-15, 09:37:01,VALID,917.43,VALID,0,VALID,100,VALID,0,VALID,19.4115,VALID,11,VALID,0.347743,
2006-11-15, 09:38:00,VALID,917.428,VALID,0,VALID,100,VALID,0,VALID,19.4209,VALID,350,VALID,0.381359,
2006-11-15, 09:39:01,VALID,917.418,VALID,0,VALID,100,VALID,-0.0169808,VALID,19.4371,VALID,343,VALID,0.477471,
2006-11-15, 09:40:00,VALID,917.397,VALID,0,VALID,100,VALID,-0.0169808,VALID,19.4636,VALID,334,VALID,0.406822,
2006-11-15, 09:41:00,VALID,917.389,VALID,0,VALID,100,VALID,0,VALID,19.4897,VALID,334,VALID,0.285511,
2006-11-15, 09:42:00,VALID,917.347,VALID,0,VALID,100,VALID,0,VALID,19.476,VALID,334,VALID,0.318132,
2006-11-15, 09:43:01,VALID,917.348,VALID,0,VALID,100,VALID,0,VALID,19.4822,VALID,322,VALID,0.620276,
2006-11-15, 09:44:01,VALID,917.345,VALID,0,VALID,100,VALID,0.0169808,VALID,19.4986,VALID,285,VALID,0.713542,
2006-11-15, 09:45:01,VALID,917.338,VALID,0,VALID,100,VALID,0,VALID,19.5217,VALID,274,VALID,0.764737,
2006-11-15, 09:46:00,VALID,917.337,VALID,0,VALID,100,VALID,0,VALID,19.5309,VALID,289,VALID,0.911156,
2006-11-15, 09:47:00,VALID,917.32,VALID,0,VALID,100,VALID,0,VALID,19.5244,VALID,290,VALID,0.548118,
2006-11-15, 09:48:01,VALID,917.309,VALID,0,VALID,100,VALID,0,VALID,19.5314,VALID,290,VALID,0.193638,
2006-11-15, 09:49:00,VALID,917.313,VALID,0,VALID,100,VALID,0,VALID,19.524,VALID,290,VALID,0.0928622,
2006-11-15, 09:50:00,VALID,917.3,VALID,0,VALID,100,VALID,0.0169808,VALID,19.5244,VALID,290,VALID,0.00142045,
2006-11-15, 09:51:01,VALID,917.284,VALID,0,VALID,100,VALID,0,VALID,19.5113,VALID,290,VALID,0,
2006-11-15, 09:52:00,VALID,917.268,VALID,0,VALID,100,VALID,0.0169808,VALID,19.4984,VALID,290,VALID,0,
2006-11-15, 09:53:00,VALID,917.249,VALID,0,VALID,100,VALID,0,VALID,19.4857,VALID,290,VALID,0.0163872,
2006-11-15, 09:54:01,VALID,917.204,VALID,0,VALID,100,VALID,-0.0339617,VALID,19.5153,VALID,279,VALID,0.418341,
2006-11-15, 09:55:00,VALID,917.196,VALID,0,VALID,100,VALID,0,VALID,19.5669,VALID,275,VALID,0.369234,
2006-11-15, 09:56:00,VALID,917.177,VALID,0,VALID,100,VALID,0,VALID,19.5671,VALID,275,VALID,0.174964,
2006-11-15, 09:57:00,VALID,917.167,VALID,0,VALID,100,VALID,0,VALID,19.5438,VALID,7,VALID,0.443496,
2006-11-15, 09:58:00,VALID,917.147,VALID,0,VALID,100,VALID,0,VALID,19.5247,VALID,40,VALID,0.393466,
2006-11-15, 09:59:00,VALID,917.143,VALID,0,VALID,100,VALID,-0.0339617,VALID,19.5153,VALID,38,VALID,0.914063,
2006-11-15, 10:00:00,VALID,917.14,VALID,0,VALID,100,VALID,0,VALID,19.486,VALID,28,VALID,0.612153,
2006-11-15, 10:01:00,VALID,917.139,VALID,0,VALID,100,VALID,0,VALID,19.4634,VALID,21,VALID,0.487827,
2006-11-15, 10:02:00,VALID,917.151,VALID,0.2,VALID,100,VALID,-0.0169808,VALID,19.444,VALID,44,VALID,0.738961,
2006-11-15, 10:03:01,VALID,917.134,VALID,0,VALID,100,VALID,0,VALID,19.4246,VALID,41,VALID,1.03072,
2006-11-15, 10:04:00,VALID,917.111,VALID,0,VALID,100,VALID,0,VALID,19.4018,VALID,45,VALID,1.08523,
2006-11-15, 10:05:00,VALID,917.106,VALID,0,VALID,100,VALID,0.0509425,VALID,19.3656,VALID,44,VALID,0.420632,
2006-11-15, 10:06:00,VALID,917.078,VALID,0,VALID,100,VALID,0,VALID,19.3663,VALID,49,VALID,0.426172,
2006-11-15, 10:07:01,VALID,917.071,VALID,0,VALID,100,VALID,0.0339617,VALID,19.3499,VALID,42,VALID,0.558117,
2006-11-15, 10:08:00,VALID,917.071,VALID,0,VALID,100,VALID,0,VALID,19.337,VALID,43,VALID,0.714744,
2006-11-15, 10:09:01,VALID,917.074,VALID,0,VALID,100,VALID,0.0679233,VALID,19.3206,VALID,49,VALID,0.66276,
2006-11-15, 10:10:00,VALID,917.072,VALID,0,VALID,100,VALID,0,VALID,19.3114,VALID,55,VALID,0.653343,
2006-11-15, 10:11:00,VALID,917.085,VALID,0,VALID,100,VALID,0.0169808,VALID,19.3216,VALID,40,VALID,1.23971,
2006-11-15, 10:12:00,VALID,917.088,VALID,0,VALID,100,VALID,0.0169808,VALID,19.3181,VALID,34,VALID,1.14844,
2006-11-15, 10:13:00,VALID,917.062,VALID,0,VALID,100,VALID,0,VALID,19.3243,VALID,30,VALID,0.674543,
2006-11-15, 10:14:01,VALID,917.042,VALID,0,VALID,100,VALID,0.0339617,VALID,19.3405,VALID,31,VALID,0.687826,
2006-11-15, 10:15:00,VALID,917.03,VALID,0,VALID,100,VALID,0.0169808,VALID,19.34,VALID,39,VALID,0.268709,
2006-11-15, 10:16:00,VALID,917.013,VALID,0,VALID,100,VALID,0.0679233,VALID,19.3499,VALID,45,VALID,0.601918,
2006-11-15, 10:17:00,VALID,916.982,VALID,0,VALID,100,VALID,0,VALID,19.3432,VALID,35,VALID,0.710007,
2006-11-15, 10:18:00,VALID,916.944,VALID,0,VALID,100,VALID,0,VALID,19.337,VALID,33,VALID,0.434593,
2006-11-15, 10:19:00,VALID,916.924,VALID,0,VALID,100,VALID,0.0509425,VALID,19.3367,VALID,19,VALID,0.235828,
2006-11-15, 10:20:00,VALID,916.907,VALID,0,VALID,100,VALID,0.0339617,VALID,19.33,VALID,9,VALID,0.371911,
2006-11-15, 10:21:00,VALID,916.884,VALID,0,VALID,100,VALID,0.0169808,VALID,19.3499,VALID,321,VALID,0.4504,
2006-11-15, 10:22:00,VALID,916.881,VALID,0,VALID,100,VALID,0,VALID,19.3596,VALID,345,VALID,0.904576,
2006-11-15, 10:23:00,VALID,916.883,VALID,0,VALID,100,VALID,0.0339617,VALID,19.3693,VALID,358,VALID,0.918146,
2006-11-15, 10:24:01,VALID,916.855,VALID,0,VALID,100,VALID,0.0509425,VALID,19.3695,VALID,16,VALID,1.03289,
2006-11-15, 10:25:01,VALID,916.849,VALID,0,VALID,100,VALID,0.0339617,VALID,19.3725,VALID,26,VALID,0.89375,
2006-11-15, 10:26:00,VALID,916.818,VALID,0,VALID,100,VALID,0.0169808,VALID,19.379,VALID,29,VALID,0.518714,
2006-11-15, 10:27:01,VALID,916.783,VALID,0,VALID,100,VALID,0.0509425,VALID,19.3854,VALID,12,VALID,0.839134,
2006-11-15, 10:28:01,VALID,916.757,VALID,0,VALID,100,VALID,0.0339617,VALID,19.3822,VALID,24,VALID,1.17208,
2006-11-15, 10:29:01,VALID,916.727,VALID,0,VALID,100,VALID,0.0509425,VALID,19.4015,VALID,49,VALID,1.20276,
2006-11-15, 10:30:00,VALID,916.698,VALID,0,VALID,100,VALID,0,VALID,19.3981,VALID,65,VALID,0.843928,
2006-11-15, 10:31:00,VALID,916.69,VALID,0,VALID,100,VALID,0.0339617,VALID,19.4112,VALID,68,VALID,0.658668,
2006-11-15, 10:32:01,VALID,916.687,VALID,0,VALID,100,VALID,0.0509425,VALID,19.4013,VALID,69,VALID,0.302455,
2006-11-15, 10:33:00,VALID,916.696,VALID,0,VALID,100,VALID,0.0339617,VALID,19.4207,VALID,66,VALID,0.393555,
2006-11-15, 10:34:00,VALID,916.704,VALID,0,VALID,100,VALID,0.0339617,VALID,19.4142,VALID,63,VALID,0.255729,
2006-11-15, 10:35:01,VALID,916.711,VALID,0,VALID,100,VALID,0.0169808,VALID,19.4343,VALID,63,VALID,0.205669,
2006-11-15, 10:36:01,VALID,916.726,VALID,0,VALID,100,VALID,0.0339617,VALID,19.4375,VALID,62,VALID,0.167436,
2006-11-15, 10:37:00,VALID,916.774,VALID,0,VALID,100,VALID,0.0339617,VALID,19.441,VALID,61,VALID,0.0926847,
2006-11-15, 10:38:00,VALID,916.817,VALID,0,VALID,100,VALID,0.0339617,VALID,19.4306,VALID,26,VALID,1.15389,